FW7504 Weather Reports


time (UTC)temp
C
wind
direction
speed
KPH
gust
KPH
rain 1hr
cm
rain 24hr
cm
rain mn
cm
humidity
%
barometer
mb
20260503014607 15 360 1.6 14.5 0.00 0.00 0.00 51 1017.9
20260503014051 15 0 6.4 16.1 0.00 0.00 0.00 50 1018.0
20260503013548 15 360 4.8 16.1 0.00 0.00 0.00 49 1018.0
20260503013052 15 360 4.8 16.1 0.00 0.00 0.00 48 1017.8
20260503012552 15 360 3.2 22.5 0.00 0.00 0.00 48 1017.9
20260503012053 15 360 6.4 22.5 0.00 0.00 0.00 47 1017.8
20260503011556 16 360 6.4 22.5 0.00 0.00 0.00 46 1017.6
20260503011048 16 360 3.2 9.7 0.00 0.00 0.00 45 1017.7
20260503010548 16 360 1.6 8.0 0.00 0.00 0.00 44 1017.5
20260503010051 16 0 1.6 8.0 0.00 0.00 0.00 43 1017.1
20260503005553 16 0 0.0 9.7 0.00 0.00 0.00 43 1017.1
20260503005052 16 360 1.6 14.5 0.00 0.00 0.00 43 1017.1
20260503004550 16 360 1.6 14.5 0.00 0.00 0.00 42 1016.8
20260503004054 16 360 1.6 12.9 0.00 0.00 0.00 42 1016.8
20260503003551 16 360 1.6 9.7 0.00 0.00 0.00 42 1016.8
20260503003053 16 360 3.2 9.7 0.00 0.00 0.00 41 1016.7
20260503002552 16 360 1.6 9.7 0.00 0.00 0.00 41 1016.6
20260503002048 16 360 1.6 9.7 0.00 0.00 0.00 42 1016.6
20260503001602 16 0 0.0 6.4 0.00 0.00 0.00 42 1016.4
20260503001048 16 360 1.6 8.0 0.00 0.00 0.00 41 1016.2
20260503000551 17 360 1.6 8.0 0.00 0.00 0.00 41 1016.2
20260503000052 17 0 1.6 12.9 0.00 0.00 0.00 40 1016.3
20260502235551 17 360 1.6 12.9 0.00 0.00 0.00 40 1016.0
20260502235051 17 360 1.6 12.9 0.00 0.00 0.00 39 1016.0
20260502234553 17 360 1.6 12.9 0.00 0.00 0.00 39 1015.8
20260502234052 17 360 3.2 12.9 0.00 0.00 0.00 38 1015.7
20260502233552 17 360 0.0 14.5 0.00 0.00 0.00 39 1015.6
20260502233054 17 0 3.2 14.5 0.00 0.00 0.00 38 1015.6
20260502232554 17 360 1.6 16.1 0.00 0.00 0.00 38 1015.5
20260502232051 17 360 1.6 16.1 0.00 0.00 0.00 38 1015.6
20260502231551 17 360 3.2 17.7 0.00 0.00 0.00 37 1015.6
20260502231051 17 360 1.6 17.7 0.00 0.00 0.00 35 1015.6
20260502230551 17 360 0.0 12.9 0.00 0.00 0.00 37 1015.6
20260502230056 18 0 1.6 16.1 0.00 0.00 0.00 35 1015.4
20260502225550 18 360 1.6 16.1 0.00 0.00 0.00 36 1015.6
20260502225051 18 360 4.8 14.5 0.00 0.00 0.00 35 1015.6
20260502224551 18 360 3.2 17.7 0.00 0.00 0.00 36 1015.7
20260502224051 18 360 3.2 20.9 0.00 0.00 0.00 35 1015.7
20260502223551 18 360 9.7 20.9 0.00 0.00 0.00 35 1015.6
20260502223057 18 360 8.0 20.9 0.00 0.00 0.00 35 1015.7
20260502222553 18 360 6.4 17.7 0.00 0.00 0.00 34 1015.4
20260502222054 18 360 1.6 16.1 0.00 0.00 0.00 35 1015.5
20260502221558 18 360 6.4 16.1 0.00 0.00 0.00 35 1015.7
20260502221054 18 360 1.6 9.7 0.00 0.00 0.00 37 1015.5
20260502220553 18 360 3.2 12.9 0.00 0.00 0.00 36 1015.4
20260502220055 18 360 3.2 20.9 0.00 0.00 0.00 36 1015.4
20260502215553 18 360 8.0 20.9 0.00 0.00 0.00 36 1015.4
20260502215053 18 360 1.6 19.3 0.00 0.00 0.00 36 1015.4
20260502214558 18 0 1.6 19.3 0.00 0.00 0.00 36 1015.3
20260502214054 18 360 4.8 19.3 0.00 0.00 0.00 35 1015.4
20260502213553 18 0 3.2 19.3 0.00 0.00 0.00 36 1015.3
20260502213054 18 360 6.4 19.3 0.00 0.00 0.00 35 1015.2
20260502212553 18 360 3.2 19.3 0.00 0.00 0.00 36 1015.1
20260502212053 18 360 4.8 19.3 0.00 0.00 0.00 35 1015.2
20260502211559 19 360 3.2 16.1 0.00 0.00 0.00 35 1015.1
20260502211057 18 360 4.8 19.3 0.00 0.00 0.00 35 1015.2
20260502210554 19 360 6.4 19.3 0.00 0.00 0.00 34 1015.3
20260502210110 19 0 4.8 19.3 0.00 0.00 0.00 34 1015.3
20260502205554 19 360 8.0 19.3 0.00 0.00 0.00 35 1015.2
20260502205055 19 360 6.4 17.7 0.00 0.00 0.00 35 1015.2
20260502204559 19 360 3.2 22.5 0.00 0.00 0.00 35 1015.1
20260502204053 19 360 6.4 22.5 0.00 0.00 0.00 33 1015.0
20260502203553 19 360 6.4 22.5 0.00 0.00 0.00 34 1015.1
20260502203057 19 360 6.4 17.7 0.00 0.00 0.00 36 1015.2
20260502202553 19 360 6.4 19.3 0.00 0.00 0.00 34 1015.2
20260502202052 19 360 8.0 19.3 0.00 0.00 0.00 36 1015.1
20260502201554 19 360 6.4 19.3 0.00 0.00 0.00 37 1015.2
20260502201053 19 360 6.4 14.5 0.00 0.00 0.00 36 1015.3
20260502200553 19 360 4.8 20.9 0.00 0.00 0.00 37 1015.2
20260502200101 19 360 8.0 20.9 0.00 0.00 0.00 38 1015.4
20260502195552 19 360 4.8 20.9 0.00 0.00 0.00 37 1015.4
20260502195054 18 0 6.4 17.7 0.00 0.00 0.00 37 1015.4
20260502194558 18 360 6.4 17.7 0.00 0.00 0.00 36 1015.5
20260502194055 18 360 6.4 16.1 0.00 0.00 0.00 38 1015.5
20260502193553 18 360 1.6 16.1 0.00 0.00 0.00 37 1015.7
20260502193109 18 0 8.0 16.1 0.00 0.00 0.00 35 1015.6
20260502192552 18 360 4.8 17.7 0.00 0.00 0.00 37 1015.7
20260502192052 18 360 6.4 17.7 0.00 0.00 0.00 36 1015.8
20260502191559 18 360 4.8 22.5 0.00 0.00 0.00 36 1015.8
20260502191052 18 360 8.0 22.5 0.00 0.00 0.00 37 1015.7
20260502190553 18 360 6.4 20.9 0.00 0.00 0.00 37 1015.7
20260502190106 18 360 6.4 20.9 0.00 0.00 0.00 37 1015.8
20260502185554 18 360 9.7 19.3 0.00 0.00 0.00 38 1015.8
20260502185053 18 360 3.2 22.5 0.00 0.00 0.00 39 1015.9
20260502184559 18 360 8.0 22.5 0.00 0.00 0.00 40 1016.0
20260502184053 18 360 6.4 16.1 0.00 0.00 0.00 40 1016.0
20260502183553 18 360 6.4 20.9 0.00 0.00 0.00 37 1016.1
20260502183109 18 360 4.8 20.9 0.00 0.00 0.00 39 1016.0
20260502182552 18 360 6.4 24.1 0.00 0.00 0.00 37 1016.1
20260502182052 18 360 4.8 24.1 0.00 0.00 0.00 38 1016.1
20260502181552 18 360 9.7 24.1 0.00 0.00 0.00 39 1016.1
20260502181053 18 360 6.4 20.9 0.00 0.00 0.00 40 1016.1
20260502180557 18 360 6.4 19.3 0.00 0.00 0.00 38 1016.1
20260502164052 16 360 4.8 20.9 0.00 0.00 0.00 43 1016.8
20260502163552 16 360 9.7 19.3 0.00 0.00 0.00 42 1016.8
20260502163056 16 360 6.4 16.1 0.00 0.00 0.00 42 1016.9
20260502162553 16 360 6.4 17.7 0.00 0.00 0.00 43 1017.0
20260502162052 16 360 6.4 17.7 0.00 0.00 0.00 42 1017.1
20260502161611 16 360 4.8 19.3 0.00 0.00 0.00 43 1017.1
20260502161055 16 360 8.0 19.3 0.00 0.00 0.00 44 1017.0
20260502160554 16 360 4.8 17.7 0.00 0.00 0.00 44 1017.0
20260502152057 16 360 4.8 20.9 0.00 0.00 0.00 43 1016.6
20260502151606 16 360 3.2 20.9 0.00 0.00 0.00 43 1016.6
20260502151052 16 360 8.0 22.5 0.00 0.00 0.00 44 1016.6
20260502150552 16 360 8.0 22.5 0.00 0.00 0.00 45 1016.6
20260502130552 12 360 6.4 20.9 0.00 0.00 0.00 61 1016.1
20260502123552 11 360 3.2 12.9 0.00 0.00 0.00 65 1015.8
20260502123053 11 360 4.8 12.9 0.00 0.00 0.00 66 1015.9
20260502122552 11 360 1.6 9.7 0.00 0.00 0.00 66 1015.7
20260502122052 11 360 3.2 9.7 0.00 0.00 0.00 66 1015.8
20260502121554 11 360 3.2 8.0 0.00 0.00 0.00 66 1015.5
20260502121053 11 360 1.6 9.7 0.00 0.00 0.00 66 1015.5
20260502120552 11 360 1.6 9.7 0.00 0.00 0.00 66 1015.6
20260502115553 11 360 1.6 8.0 0.00 0.00 0.00 65 1015.5
20260502115057 11 360 1.6 8.0 0.00 0.00 0.00 65 1015.7
20260502114554 11 360 1.6 8.0 0.00 0.00 0.00 65 1015.6
20260502114053 11 360 1.6 8.0 0.00 0.00 0.00 65 1015.6
20260502113555 11 0 1.6 8.0 0.00 0.00 0.00 65 1015.5
20260502113051 11 0 1.6 12.9 0.00 0.00 0.00 64 1015.5
20260502112552 11 360 3.2 12.9 0.00 0.00 0.00 64 1015.4
20260502112052 11 360 1.6 9.7 0.00 0.00 0.00 64 1015.6
20260502111605 11 360 1.6 9.7 0.00 0.00 0.00 64 1015.5
20260502111052 11 360 3.2 9.7 0.00 0.00 0.00 64 1015.5
20260502110552 11 0 3.2 9.7 0.00 0.00 0.00 64 1015.5
20260502110055 11 360 1.6 8.0 0.00 0.00 0.00 64 1015.4
20260502105553 11 360 3.2 8.0 0.00 0.00 0.00 63 1015.3
20260502105052 11 360 3.2 12.9 0.00 0.00 0.00 64 1015.1
20260502104558 11 360 3.2 12.9 0.00 0.00 0.00 63 1015.0
20260502104053 11 360 1.6 8.0 0.00 0.00 0.00 63 1015.1
20260502103556 11 360 1.6 9.7 0.00 0.00 0.00 63 1015.2
20260502103055 11 0 1.6 12.9 0.00 0.00 0.00 63 1015.1
20260502102553 11 360 3.2 12.9 0.00 0.00 0.00 63 1015.0
20260502102052 11 360 3.2 9.7 0.00 0.00 0.00 62 1015.0
20260502101554 11 360 1.6 8.0 0.00 0.00 0.00 62 1015.2
20260502101052 11 360 1.6 8.0 0.00 0.00 0.00 62 1015.3
20260502100552 11 360 1.6 8.0 0.00 0.00 0.00 62 1015.2
20260502091052 12 360 3.2 14.5 0.00 0.00 0.00 58 1015.0
20260502090552 12 360 4.8 12.9 0.00 0.00 0.00 58 1015.0
20260502090111 12 360 3.2 12.9 0.00 0.00 0.00 58 1015.3
20260502071054 13 360 3.2 12.9 0.00 0.00 0.00 52 1015.6
20260502070552 13 360 1.6 12.9 0.00 0.00 0.00 53 1016.0
20260502070104 13 0 3.2 12.9 0.00 0.00 0.00 52 1016.1
20260502065552 13 360 3.2 9.7 0.00 0.00 0.00 53 1016.2
20260502065052 13 360 1.6 8.0 0.00 0.00 0.00 53 1016.1
20260502064551 13 360 0.0 6.4 0.00 0.00 0.00 53 1016.1
20260502064052 13 0 1.6 6.4 0.00 0.00 0.00 52 1016.1
20260502063553 13 0 0.0 8.0 0.00 0.00 0.00 52 1016.1
20260502063055 13 0 1.6 8.0 0.00 0.00 0.00 52 1015.8
20260502062553 13 0 0.0 8.0 0.00 0.00 0.00 52 1015.9
20260502062052 13 360 1.6 8.0 0.00 0.00 0.00 51 1015.9
20260502061555 13 360 1.6 8.0 0.00 0.00 0.00 51 1015.9
20260502061051 13 0 1.6 8.0 0.00 0.00 0.00 51 1016.0
20260502060555 13 360 1.6 8.0 0.00 0.00 0.00 51 1016.2
20260502060053 13 360 3.2 8.0 0.00 0.00 0.00 51 1016.3
20260502055552 13 360 3.2 8.0 0.00 0.00 0.00 51 1016.2
20260502055053 13 360 1.6 6.4 0.00 0.00 0.00 51 1016.2
20260502054553 13 0 1.6 6.4 0.00 0.00 0.00 50 1016.0
20260502054052 14 0 3.2 12.9 0.00 0.00 0.00 50 1016.0
20260502053552 14 0 3.2 12.9 0.00 0.00 0.00 50 1015.8
20260502053119 14 0 3.2 12.9 0.00 0.00 0.00 50 1015.8
20260502052552 14 360 3.2 8.0 0.00 0.00 0.00 50 1015.7
20260502052052 14 360 1.6 8.0 0.00 0.00 0.00 50 1015.5
20260502051604 14 360 1.6 9.7 0.00 0.00 0.00 49 1015.5
20260502051052 14 0 3.2 16.1 0.00 0.00 0.00 49 1015.7
20260502050554 14 360 1.6 16.1 0.00 0.00 0.00 49 1015.6
20260502050056 14 360 6.4 16.1 0.00 0.00 0.00 48 1015.6
20260502045552 14 360 4.8 14.5 0.00 0.00 0.00 49 1015.7
20260502045055 15 360 4.8 17.7 0.00 0.00 0.00 50 1015.8
20260502044554 15 360 3.2 17.7 0.00 0.00 0.00 50 1015.8
20260502044054 15 360 4.8 19.3 0.00 0.00 0.00 50 1015.8
20260502043552 15 360 6.4 19.3 0.00 0.00 0.00 50 1015.7
20260502043057 15 360 4.8 16.1 0.00 0.00 0.00 52 1015.7
20260502042552 15 360 4.8 14.5 0.00 0.00 0.00 53 1015.6
20260502042052 15 360 4.8 14.5 0.00 0.00 0.00 54 1015.7
20260502041621 15 360 3.2 14.5 0.00 0.00 0.00 54 1015.7
20260502041052 15 360 3.2 14.5 0.00 0.00 0.00 55 1015.8
20260502040552 15 360 3.2 12.9 0.00 0.00 0.00 56 1015.8
20260502040057 15 360 1.6 9.7 0.00 0.00 0.00 57 1016.0
20260502035552 15 360 1.6 9.7 0.00 0.00 0.00 56 1015.8
20260502035052 15 360 1.6 14.5 0.00 0.00 0.00 56 1015.9
20260502034559 15 360 3.2 14.5 0.00 0.00 0.00 57 1015.8
20260502034052 15 360 4.8 16.1 0.00 0.00 0.00 56 1015.7
20260502033551 15 360 1.6 16.1 0.00 0.00 0.00 57 1015.7
20260502033106 15 360 6.4 17.7 0.00 0.00 0.00 58 1015.8
20260502032552 15 360 3.2 19.3 0.00 0.00 0.00 58 1015.7
20260502032052 15 360 8.0 19.3 0.00 0.00 0.00 58 1015.6
20260502031558 16 360 6.4 17.7 0.00 0.00 0.00 59 1015.8
20260502031055 16 360 0.0 8.0 0.00 0.00 0.00 60 1015.8
20260502030554 16 0 1.6 17.7 0.00 0.00 0.00 60 1015.7
20260502030057 16 0 3.2 17.7 0.00 0.00 0.00 60 1015.7
20260502025552 16 360 4.8 19.3 0.00 0.00 0.00 60 1015.8
20260502025052 16 360 6.4 19.3 0.00 0.00 0.00 60 1015.7
20260502024556 16 360 3.2 8.0 0.00 0.00 0.00 60 1015.4
20260502024052 16 360 1.6 6.4 0.00 0.00 0.00 60 1015.5
20260502023554 16 360 0.0 6.4 0.00 0.00 0.00 62 1015.5
20260502023055 16 360 0.0 6.4 0.00 0.00 0.00 62 1015.5
20260502022552 16 360 1.6 6.4 0.00 0.00 0.00 62 1015.5
20260502022052 16 0 0.0 14.5 0.00 0.00 0.00 62 1015.4
20260502021552 16 360 1.6 14.5 0.00 0.00 0.00 62 1015.4
20260502021051 16 360 4.8 14.5 0.00 0.00 0.00 61 1015.4
20260502020552 16 360 3.2 14.5 0.00 0.00 0.00 62 1015.4
20260502020059 16 360 3.2 14.5 0.00 0.00 0.00 62 1015.4
20260502015552 16 360 3.2 6.4 0.00 0.00 0.00 63 1015.3
20260502015052 16 360 1.6 6.4 0.00 0.00 0.00 65 1015.2